Location: Vista Encantada
(35.1109°N, 106.5681°W)
Time: 09:05:54
(UTC+00:00)

Cosmos 2098 Rocket - Pass Details

Date: 29 October 2020
Orbit: 366 x 1184 km, 82.9° (Epoch: 04 December)

Event Time Altitude Azimuth Distance (km) Brightness Sun altitude
Rises 12:16:52 0° 179° (S) 3,811 7.2 -14.5°
Reaches altitude 10° 12:19:40 10° 177° (S) 2,757 6.5 -13.9°
Maximum altitude 12:25:56 71° 95° (E) 900 4.0 -12.7°
Drops below altitude 10° 12:30:58 10° 12° (NNE) 2,224 5.9 -11.7°
Sets 12:33:02 0° 10° (N) 3,028 6.6 -11.2°
